Regional Weather Roundup
Issued by NWS Wakefield, VA

Home | Current Version | Previous Version | Text Only | Print | Product List | Glossary Off
Versions: 1 2 3 4 5 6 7 8 9 10 11 12 13 14 15 16 17 18 19 20 21 22 23 24 25 26 27 28 29 30 31 32 33 34 35 36 37 38 39 40 41 42 43 44 45 46 47 48 49 50
399 ASUS41 KAKQ 190115 RWRAKQ REGIONAL WEATHER ROUNDUP NATIONAL WEATHER SERVICE WAKEFIELD VA 900 PM EDT FRI AUG 18 2017 Note: "fair" indicates few or no clouds below 12,000 feet with no significant weather and/or obstructions to visibility. * = Denotes station may not report precipitation (e.g., rain,snow,etc.), thunder or fog. VAZ042-051-052>054-056-190200- NORTHERN VIRGINIA CITY SKY/WX TMP DP RH WIND PRES REMARKS WASH NATIONAL CLOUDY 80 77 90 S12 29.83R THUNDER DULLES CLOUDY 77 77 100 CALM 29.83S FORT BELVOIR CLOUDY 77 75 92 CALM 29.83R QUANTICO CLOUDY 82 78 88 E6 29.83F THUNDER FREDERICKSBRG* CLOUDY 79 76 91 CALM 29.83S STAFFORD* CLOUDY 79 78 95 CALM 29.87S WARRENTON CLOUDY 79 73 82 CALM 29.83R CULPEPER* CLOUDY 80 76 88 CALM 29.84R MANASSAS* CLOUDY 79 76 90 S3 29.83S LEESBURG* CLOUDY 79 79 100 CALM 29.84R WINCHESTER CLOUDY 75 70 83 W6 29.84F FRONT ROYAL* CLOUDY 73 72 94 W7 29.83S LURAY* CLOUDY 73 73 100 W5 29.86S $$ VAZ048-049-060>072-079>083-190200- CENTRAL AND SOUTH CENTRAL VIRGINIA CITY SKY/WX TMP DP RH WIND PRES REMARKS RICHMOND TSTM 75 74 96 S15 29.88R FOG CHESTERFIELD* TSTM 75 73 94 S14 29.88F FOG PETERSBURG* PTCLDY 83 76 78 NW14 29.86R HANOVER CLOUDY 74 71 91 VRB3 29.87R TAPPAHANNOCK* TSTM 75 72 92 S8 29.87 QUINTON* CLOUDY 73 73 100 W12G17 29.86R FOG CHARLOTTSVILLE CLOUDY 80 76 87 CALM 29.83F GORDONSVILLE* CLOUDY 78 77 98 CALM 29.83S ORANGE* CLOUDY 77 73 88 CALM 29.85R LOUISA* CLOUDY 75 73 94 CALM 29.86R BUMPASS* MOCLDY 75 75 100 SE3 29.86R FARMVILLE* LGT RAIN 78 76 95 CALM 29.84R CREWE* MOCLDY 79 75 87 NW5 29.84R FORT PICKETT* MOCLDY N/A N/A N/A NW5 29.84R CHASE CITY* CLOUDY 83 74 75 W5 29.85R CLARKSVILLE* CLOUDY 82 77 83 W3 29.84R SOUTH HILL* PTCLDY 82 78 90 S6 29.88S LAWRENCEVILLE* FAIR 82 77 83 CALM 29.83R EMPORIA* N/A 81 77 89 SE3 29.85R $$ VAZ088>098-190200- SOUTHEAST VIRGINIA CITY SKY/WX TMP DP RH WIND PRES REMARKS NORFOLK CLEAR 84 76 76 S12 29.83 VIRGINIA BEACH PTCLDY 82 74 76 S6 29.84R NORFOLK NAVAL PTCLDY 85 75 72 S7 29.85R WEST POINT* CLOUDY 85 76 75 W18 29.86R SALUDA* FAIR 82 80 92 CALM 29.83R NEWPORT NEWS CLEAR 84 75 74 S9 29.84R LANGLEY AFB NOT AVBL FORT EUSTIS CLOUDY 84 77 79 S6 29.82R HX 95 WILLIAMSBURG* CLOUDY 88 79 74 SW5 29.85R HX 102 HR EXEC AP* FAIR 82 73 74 S7 29.82R FRANKLIN* CLEAR 81 76 86 S6 29.85R US460-WAKEFLD CLEAR 83 79 88 VRB3 29.85R $$ VAZ020-022-025-037-045-190200- WEST CENTRAL AND SOUTHWEST VIRGINIA CITY SKY/WX TMP DP RH WIND PRES REMARKS STAUNTON* CLOUDY 79 69 71 CALM 29.90R WAYNESBORO* MOCLDY 80 72 78 SW3 29.90R HOT SPRINGS VA PTCLDY 68 64 88 W17G24 30.04R LYNCHBURG CLOUDY 77 75 93 S3 29.88R DANVILLE CLOUDY 79 73 82 W5 29.87R SOUTH BOSTON* CLOUDY 79 75 86 SW9 29.87R MARTINSVILLE MOCLDY 74 73 97 CALM 29.93R ROANOKE PTCLDY 78 65 63 W6 29.92R BLACKSBURG CLEAR 70 67 90 CALM 30.01S DUBLIN* CLEAR 73 67 81 W6 30.00S MARION* MOCLDY 71 61 70 CALM 30.05R HILLSVILLE* PTCLDY 71 62 72 CALM 30.02R RICHLANDS* CLOUDY 72 63 73 CALM 30.04S WISE* PTCLDY 72 61 68 CALM 30.05S ABINGDON* PTCLDY 75 72 89 CALM 30.01R $$ MDZ021>025-VAZ099-100-190200- SOUTHERN MARYLAND AND THE DELMARVA PENINSULA CITY SKY/WX TMP DP RH WIND PRES REMARKS PATUXENT RIVER TSTM 72 71 97 VRB6G28 29.89R VSB 3/4 BAY BRIDGE APT CLOUDY 75 75 100 S8 29.83R LEONARDTOWN N/A 72 70 94 E3 29.81F DOVER TSTM 73 73 100 SE9 29.86R GEORGETOWN TSTM 73 72 96 N12G18 29.91R VSB 1 EASTON NOT AVBL CAMBRIDGE FOG 75 73 94 SW10G17 29.85R VSB 3/4 SALISBURY CLOUDY 81 78 91 CALM 29.85R OCEAN CITY CLOUDY 79 76 90 SW8 29.86R WALLOPS ISLAND CLOUDY 79 77 94 S12 29.85R ACCOMACK* CLEAR 82 78 89 S8 29.84S $$ NCZ012>017-030>032-190200- NORTH CENTRAL AND EASTERN NORTH CAROLINA CITY SKY/WX TMP DP RH WIND PRES REMARKS ROANOKE RAPIDS FAIR 81 77 89 S3 29.83R RALEIGH PTCLDY 89 73 59 SW14 29.85S HX 97 ELIZABETH CITY CLEAR 83 80 91 S8 29.87R HX 95 AHOSKIE* N/A 80 78 94 S3 29.84R EDENTON* CLEAR 84 79 85 S8 29.86R HX 97 CURRITUCK* CLEAR 82 76 81 SW5 29.87R KILL DEVIL HLS CLEAR 82 79 89 S6 29.86R MANTEO CLEAR 83 79 89 SW20 29.87R CAPE HATTERAS PTCLDY 85 82 91 SW16G24 29.90R HX 102 TARBORO* NOT AVBL GOLDSBORO CLEAR 86 80 81 S7 29.85S HX 102 WASHINGTON CLEAR 84 77 80 S6 29.86R GREENVILLE CLEAR 86 79 79 S9 29.87R HX 99 NEW BERN CLEAR 83 79 88 S9 29.89R WILMINGTON CLEAR 84 78 82 SW12 29.90S HX 95 $$ VAZ048-190200- ELSEWHERE CITY SKY/WX TMP DP RH WIND PRES REMARKS HARRISBURG PA CLOUDY 77 75 93 SE5 29.80R BALTIMORE CLOUDY 76 76 100 S3 29.82R ANNAPOLIS CLOUDY 77 77 100 S8 29.82R ANDREWS AFB CLOUDY 76 74 94 S8 29.83R PHILADELPHIA CLOUDY 75 73 93 SE12 29.81R HENDERSON NC MOCLDY 82 73 74 SW6 29.84S GREENSBORO CLOUDY 78 75 90 SW5 29.91S ROCKY MOUNT CLEAR 85 75 72 S8 29.84S $$ VAZ100-190200- MARINE STATION/POSITION TIME TEMP WIND PRES WAVE SWELL AIR SEA DIR/SP/G HT/PER HT/PER (UTC) (F) (DEG/KT/KT) (MB) (FT/S) (FT/S) BRANDYWINE LGT 0036 73 290/ 7/ 8 1011.2R CAPE MAY NJ 0036 74 79 310/ 15/ 17 1009.8R LEWES DE 0036 76 78 350/ 6/ 8 1010.4R 15NM E FENWICK I 0050 79 78 190/ 16/ 17 1010.8R 4/ 5 2/ 9 OCEAN-CITY-INLET 0036 76 75 210/ 10/ 11 1010.9R WACHAPREAGUE VA 0036 82 85 190/ 13/ 18 1009.7F THOMAS POINT MD 0100 78 80 160/ 7/ 8 N/A GOOSES REEF MD 0100 77 80 200/ 14/ 19 1011.6 2/ 3 COVE POINT MD 0036 72 270/ 11/ 18 1012.3R SOLOMONS ISLAND 0036 72 82 240/ 9/ 18 N/A BISHOPS HEAD MD 0036 83 85 200/ 15/ 18 1009.7R PINEY POINT MD 0048 300/ 10/ 12 N/A POTOMAC MD 0100 76 82 340/ 17/ 27 1011.0 2/ 3 CAMBRIDGE MD 0036 76 82 1011.5R LEWISETTA VA 0036 75 85 300/ 25/ 34 1011.4R RAPPAHANNOCK LGT 0048 170/ 16/ 18 1010.6R STINGRAY PT 0100 84 82 220/ 8/ 10 1010.4 1/ 3 YORK RVR RNG VA 0036 85 210/ 14/ 16 1010.1R YORKTOWN VA 0036 86 83 190/ 8/ 10 1009.4R JAMESTOWN VA 0100 84 200/ 6/ 8 N/A 0 DOMINION TERM VA 0036 83 200/ 11/ 14 1010.1R KIPTOPEKE VA 0036 81 200/ 9/ 11 N/A CHES BAY BRIDGE 0048 84 76 210/ 13/ 16 1010.1R CAPE HENRY VA 0048 83 180/ 8/ 11 N/A WILLOUBY STN VA 0048 200/ 13/ 15 N/A S CRANEY ISL VA 0048 84 190/ 8/ 14 1009.9R CAPE HENRY BUOY 0100 80 N/A 3/ 4 1ST LANDING BUOY 0100 83 79 1010.3 1/ 3 64NM E OF VA BCH 0050 80 78 210/ 16/ 17 1012.0R 4/ 4 2/ 9 DUCK PIER NC 0048 83 73 190/ 13/ 16 1010.9R 44100 DUCK FRF 0005 80 N/A 2/ 8 44056 DUCK FRF 0100 78 N/A 2/ 4 OREGON INLET NC 0048 190/ 21/ 26 N/A HATTERAS NC 0048 84 84 210/ 14/ 19 1012.3R DIAMOND SHLS NC 0050 85 85 210/ 19/ 23 1012.4R 4/ 5 2/ 8 CAPE LOOKOUT NC 0100 84 210/ 11/ 14 1012.4R $$

USA.gov is the U.S. government's official web portal to all federal, state and local government web resources and services.